NA9VY Weather Reports


Display with metric or nautical units.
time (UTC)temp
F
wind
direction
speed
MPH
gust
MPH
rain 1hr
in
rain 24hr
in
rain mn
in
humidity
%
barometer
mb
20240619201032 87 195 1.0 1.0 0.00 0.00 0.00 71 1025.0
20240619200528 87 106 1.0 2.0 0.00 0.00 0.00 66 1025.0
20240619200025 87 239 2.0 3.0 0.00 0.00 0.00 66 1024.9
20240619195524 88 220 0.0 2.0 0.00 0.00 0.00 67 1025.1
20240619195023 88 240 0.0 1.0 0.00 0.00 0.00 66 1025.2
20240619194519 89 230 3.0 3.0 0.00 0.00 0.00 63 1025.0
20240619194018 89 188 1.0 3.0 0.00 0.00 0.00 65 1025.3
20240619193516 89 196 2.0 3.0 0.00 0.00 0.00 60 1025.0
20240619193014 89 165 0.0 2.0 0.00 0.00 0.00 63 1025.1
20240619192513 89 172 0.0 2.0 0.00 0.00 0.00 60 1025.2
20240619192013 88 148 0.0 3.0 0.00 0.00 0.00 63 1025.0
20240619191511 90 180 2.0 2.0 0.00 0.00 0.00 66 1025.2
20240619191010 91 187 0.0 1.0 0.00 0.00 0.00 58 1025.2
20240619190509 90 7 0.0 3.0 0.00 0.00 0.00 57 1025.1
20240619190008 90 270 1.0 2.0 0.00 0.00 0.00 64 1025.1
20240619185506 90 229 0.0 4.0 0.00 0.00 0.00 63 1025.5
20240619185004 90 165 0.0 2.0 0.00 0.00 0.00 60 1025.3
20240619184501 90 109 5.0 5.0 0.00 0.00 0.00 61 1025.2
20240619184001 89 117 0.0 3.0 0.00 0.00 0.00 59 1025.2
20240619183459 89 275 2.0 4.0 0.00 0.00 0.00 61 1025.4
20240619182957 88 90 3.0 7.0 0.00 0.00 0.00 61 1025.4
20240619182455 89 140 2.0 2.0 0.00 0.00 0.00 61 1025.5
20240619181953 88 123 5.0 5.0 0.00 0.00 0.00 60 1025.3
20240619181452 87 137 0.0 7.0 0.00 0.00 0.00 66 1025.4
20240619180950 86 117 4.0 7.0 0.00 0.00 0.00 64 1025.4
20240619180446 86 114 7.0 7.0 0.00 0.00 0.00 64 1025.4
20240619175936 87 69 3.0 4.0 0.00 0.00 0.00 64 1025.4
20240619175434 86 187 0.0 3.0 0.00 0.00 0.00 72 1025.6
20240619174934 86 286 1.0 4.0 0.00 0.00 0.00 72 1025.9
20240619174432 87 254 0.0 2.0 0.00 0.00 0.00 71 1025.7
20240619173932 86 166 0.0 4.0 0.00 0.00 0.00 69 1026.1
20240619173430 86 114 0.0 3.0 0.00 0.00 0.00 68 1026.1
20240619172929 85 118 5.0 5.0 0.00 0.00 0.00 68 1026.0
20240619172427 86 118 5.0 5.0 0.00 0.00 0.00 67 1026.1
20240619171926 86 118 5.0 5.0 0.00 0.00 0.00 72 1026.2
20240619171423 85 102 4.0 4.0 0.00 0.00 0.00 70 1026.1
20240619170922 86 185 2.0 5.0 0.00 0.00 0.00 70 1026.1
20240619170420 85 166 1.0 4.0 0.00 0.00 0.00 71 1026.2
20240619165918 86 90 0.0 7.0 0.00 0.00 0.00 69 1026.0
20240619165417 85 147 2.0 2.0 0.00 0.00 0.00 76 1025.9
20240619164916 86 126 5.0 5.0 0.00 0.00 0.00 77 1025.9
20240619164415 85 75 1.0 5.0 0.00 0.00 0.00 76 1025.9
20240619163914 84 156 2.0 3.0 0.00 0.00 0.00 77 1025.8
20240619163413 84 32 2.0 4.0 0.00 0.00 0.00 76 1025.8
20240619162912 83 180 2.0 2.0 0.00 0.00 0.00 80 1026.1
20240619162410 83 77 4.0 6.0 0.00 0.00 0.00 78 1025.8
20240619161900 83 171 2.0 5.0 0.00 0.00 0.00 76 1026.0
20240619161358 83 125 0.0 5.0 0.00 0.00 0.00 78 1025.9
20240619160857 83 112 2.0 3.0 0.00 0.00 0.00 77 1025.9
20240619160355 82 119 3.0 5.0 0.00 0.00 0.00 79 1026.2
20240619155854 82 165 1.0 6.0 0.00 0.00 0.00 82 1026.0
20240619155353 84 123 2.0 6.0 0.00 0.00 0.00 81 1026.0
20240619154852 83 165 0.0 7.0 0.00 0.00 0.00 81 1026.1
20240619154350 83 117 4.0 5.0 0.00 0.00 0.00 82 1026.3
20240619153849 82 132 2.0 3.0 0.00 0.00 0.00 85 1026.1
20240619153348 82 146 0.0 3.0 0.00 0.00 0.00 84 1026.0
20240619152845 82 126 0.0 4.0 0.00 0.00 0.00 83 1026.3
20240619152343 81 180 0.0 3.0 0.00 0.00 0.00 84 1026.3
20240619151842 81 90 0.0 3.0 0.00 0.00 0.00 83 1026.4
20240619151341 82 156 2.0 5.0 0.00 0.00 0.00 83 1026.2
20240619150840 82 81 1.0 3.0 0.00 0.00 0.00 83 1026.1
20240619150340 82 180 0.0 2.0 0.00 0.00 0.00 84 1026.0
20240619145840 82 173 0.0 1.0 0.00 0.00 0.00 82 1025.9
20240619145337 83 107 3.0 4.0 0.00 0.00 0.00 80 1026.0
20240619144836 82 81 0.0 5.0 0.00 0.00 0.00 83 1026.3
20240619144334 81 129 3.0 4.0 0.00 0.00 0.00 84 1026.2
20240619143833 80 60 2.0 3.0 0.00 0.00 0.00 86 1026.4
20240619143332 81 124 3.0 5.0 0.00 0.00 0.00 85 1026.2
20240619142832 81 331 2.0 3.0 0.00 0.00 0.00 86 1026.0
20240619142330 81 172 0.0 3.0 0.00 0.00 0.00 90 1026.2
20240619141828 80 165 1.0 4.0 0.00 0.00 0.00 90 1026.1
20240619141328 80 107 2.0 3.0 0.00 0.00 0.00 91 1026.0
20240619140826 79 117 2.0 2.0 0.00 0.00 0.00 91 1026.1
20240619140325 79 85 2.0 3.0 0.00 0.00 0.00 91 1026.0
20240619135823 79 157 0.0 1.0 0.00 0.00 0.00 93 1025.8
20240619135322 78 90 0.0 3.0 0.00 0.00 0.00 94 1026.1
20240619134820 78 106 0.0 0.0 0.00 0.00 0.00 95 1026.0
20240619134319 77 107 0.0 2.0 0.00 0.00 0.00 96 1026.1
20240619133819 77 99 0.0 2.0 0.00 0.00 0.00 96 1026.1
20240619133318 77 86 3.0 3.0 0.00 0.00 0.00 97 1025.9
20240619132817 77 107 0.0 2.0 0.00 0.00 0.00 97 1026.1
20240619132314 76 270 0.0 1.0 0.00 0.00 0.00 98 1025.9
20240619131814 76 352 0.0 0.0 0.00 0.00 0.00 99 1025.9
20240619131313 75 95 2.0 2.0 0.00 0.00 0.00 99 1026.1
20240619130811 75 53 0.0 2.0 0.00 0.00 0.00 99 1025.9
20240619130309 75 180 0.0 1.0 0.00 0.00 0.00 99 1025.7
20240619125809 75 98 1.0 1.0 0.00 0.00 0.00 99 1025.8
20240619125307 75 90 0.0 3.0 0.00 0.00 0.00 99 1025.7
20240619124807 75 107 0.0 2.0 0.00 0.00 0.00 99 1025.7
20240619124303 74 112 0.0 2.0 0.00 0.00 0.00 99 1025.5
20240619123804 74 8 0.0 0.0 0.00 0.00 0.00 99 1025.4
20240619123302 74 8 0.0 0.0 0.00 0.00 0.00 99 1025.3
20240619122801 74 8 0.0 0.0 0.00 0.00 0.00 99 1025.4
20240619122259 74 8 0.0 1.0 0.00 0.00 0.00 99 1025.0
20240619121758 74 90 0.0 0.0 0.00 0.00 0.00 99 1025.2
20240619121257 73 90 0.0 0.0 0.00 0.00 0.00 99 1025.1
20240619120755 73 90 0.0 1.0 0.00 0.00 0.00 99 1025.1
20240619120255 73 90 0.0 0.0 0.00 0.00 0.00 99 1025.0
20240619115754 73 90 0.0 0.0 0.00 0.00 0.00 99 1024.8
20240619115252 73 90 0.0 0.0 0.00 0.00 0.00 99 1024.9
20240619114750 73 105 0.0 1.0 0.00 0.00 0.00 99 1024.7
20240619114249 73 172 0.0 0.0 0.00 0.00 0.00 99 1024.7
20240619113749 73 172 0.0 0.0 0.00 0.00 0.00 99 1024.6
20240619113247 73 74 0.0 1.0 0.00 0.00 0.00 99 1024.8
20240619112746 73 14 0.0 0.0 0.00 0.00 0.00 99 1024.4
20240619112243 73 14 0.0 2.0 0.00 0.00 0.00 99 1024.3
20240619111741 72 114 0.0 0.0 0.00 0.00 0.00 99 1024.3
20240619111240 73 114 0.0 0.0 0.00 0.00 0.00 99 1024.3
20240619110738 73 114 0.0 1.0 0.00 0.00 0.00 99 1024.3
20240619110237 73 90 0.0 1.0 0.00 0.00 0.00 99 1024.0
20240619105735 73 90 0.0 0.0 0.00 0.00 0.00 99 1024.0
20240619105234 72 90 0.0 0.0 0.00 0.00 0.00 99 1023.7
20240619104731 72 90 0.0 0.0 0.00 0.00 0.00 99 1023.9
20240619104231 72 81 0.0 2.0 0.00 0.00 0.00 99 1023.8
20240619103730 72 90 0.0 0.0 0.00 0.00 0.00 99 1023.8
20240619103229 72 180 0.0 1.0 0.00 0.00 0.00 99 1023.8
20240619102728 73 45 0.0 0.0 0.00 0.00 0.00 99 1023.6
20240619102224 73 52 2.0 3.0 0.00 0.00 0.00 99 1023.7
20240619101722 73 165 0.0 1.0 0.00 0.00 0.00 99 1023.8
20240619101220 72 90 0.0 1.0 0.00 0.00 0.00 99 1023.8
20240619100720 72 106 0.0 1.0 0.00 0.00 0.00 99 1023.8
20240619100219 72 97 1.0 2.0 0.00 0.00 0.00 99 1023.5
20240619095718 72 23 0.0 0.0 0.00 0.00 0.00 99 1023.5
20240619095218 72 66 1.0 2.0 0.00 0.00 0.00 99 1023.5
20240619094718 73 164 2.0 2.0 0.00 0.00 0.00 99 1023.2
20240619094216 73 23 0.0 2.0 0.00 0.00 0.00 99 1023.2
20240619093714 73 254 0.0 0.0 0.00 0.00 0.00 99 1023.1
20240619093214 73 353 0.0 2.0 0.00 0.00 0.00 99 1022.9
20240619092712 73 81 0.0 1.0 0.00 0.00 0.00 99 1023.1
20240619092210 73 7 0.0 1.0 0.00 0.00 0.00 99 1022.8
20240619091708 73 75 0.0 2.0 0.00 0.00 0.00 99 1022.7
20240619091208 72 111 1.0 1.0 0.00 0.00 0.00 99 1022.7
20240619090706 73 8 0.0 0.0 0.00 0.00 0.00 99 1022.7
20240619090205 72 8 0.0 0.0 0.00 0.00 0.00 99 1022.6
20240619085704 72 279 0.0 0.0 0.00 0.00 0.00 99 1022.8
20240619085203 73 278 0.0 1.0 0.00 0.00 0.00 99 1022.7
20240619084700 73 270 0.0 0.0 0.00 0.00 0.00 99 1022.6
20240619084158 73 286 0.0 0.0 0.00 0.00 0.00 99 1022.5
20240619083658 73 286 0.0 0.0 0.00 0.00 0.00 99 1022.4
20240619083156 73 270 0.0 0.0 0.00 0.00 0.00 99 1022.3
20240619082656 73 60 1.0 1.0 0.00 0.00 0.00 99 1022.4
20240619082154 73 99 0.0 1.0 0.00 0.00 0.00 99 1022.4
20240619081653 73 96 0.0 3.0 0.00 0.00 0.00 99 1022.3
20240619081151 73 75 0.0 0.0 0.00 0.00 0.00 99 1022.0
20240619080651 73 75 0.0 1.0 0.00 0.00 0.00 99 1022.2
20240619080150 73 75 0.0 0.0 0.00 0.00 0.00 99 1022.0
20240619075648 73 75 0.0 1.0 0.00 0.00 0.00 99 1022.3
20240619075147 73 29 0.0 0.0 0.00 0.00 0.00 99 1022.1
20240619074647 73 29 0.0 0.0 0.00 0.00 0.00 99 1022.2
20240619074145 73 29 0.0 1.0 0.00 0.00 0.00 99 1022.1
20240619073645 73 40 0.0 2.0 0.00 0.00 0.00 99 1022.1
20240619073143 73 254 0.0 1.0 0.00 0.00 0.00 99 1022.0
20240619072642 73 261 0.0 0.0 0.00 0.00 0.00 99 1022.0
20240619072141 73 261 0.0 0.0 0.00 0.00 0.00 99 1021.9
20240619071640 73 200 0.0 2.0 0.00 0.00 0.00 99 1021.7
20240619071139 73 8 0.0 1.0 0.00 0.00 0.00 99 1021.4
20240619070638 73 157 0.0 1.0 0.00 0.00 0.00 99 1021.7
20240619070137 73 18 0.0 0.0 0.00 0.00 0.00 99 1021.6
20240619065637 73 8 2.0 3.0 0.00 0.00 0.00 99 1021.7
20240619065136 73 70 2.0 3.0 0.00 0.00 0.00 99 1022.2
20240619064635 73 337 0.0 1.0 0.00 0.00 0.00 99 1022.3
20240619064134 73 90 0.0 0.0 0.00 0.00 0.00 99 1022.1
20240619063633 73 90 0.0 0.0 0.00 0.00 0.00 99 1022.3
20240619063132 73 90 0.0 0.0 0.00 0.00 0.00 99 1022.2
20240619062632 73 90 0.0 0.0 0.00 0.00 0.00 99 1022.2
20240619062131 73 90 0.0 0.0 0.00 0.00 0.00 99 1022.1
20240619061630 73 90 0.0 0.0 0.00 0.00 0.00 99 1022.1
20240619061128 73 82 1.0 1.0 0.00 0.00 0.00 99 1022.0
20240619060628 73 270 0.0 0.0 0.00 0.00 0.00 99 1022.1
20240619060127 73 270 0.0 0.0 0.00 0.00 0.00 99 1022.2
20240619055625 73 270 0.0 0.0 0.00 0.00 0.00 99 1022.1
20240619055125 73 270 0.0 0.0 0.00 0.00 0.00 99 1022.0
20240619054625 73 270 0.0 0.0 0.00 0.00 0.00 99 1022.0
20240619054124 73 270 0.0 0.0 0.00 0.00 0.00 99 1022.0
20240619053623 74 270 0.0 0.0 0.00 0.00 0.00 99 1022.1
20240619053121 74 270 0.0 0.0 0.00 0.00 0.00 99 1022.2
20240619052620 74 270 0.0 0.0 0.00 0.00 0.00 99 1022.2
20240619052118 74 270 0.0 0.0 0.00 0.00 0.00 99 1022.1
20240619051616 74 270 0.0 1.0 0.00 0.00 0.00 99 1022.0
20240619051115 74 270 0.0 0.0 0.00 0.00 0.00 99 1022.0
20240619050614 74 20 0.0 1.0 0.00 0.00 0.00 99 1021.9
20240619050112 74 270 0.0 0.0 0.00 0.00 0.00 99 1021.9
20240619045610 74 8 0.0 0.0 0.00 0.00 0.00 99 1021.9
20240619045110 74 7 0.0 1.0 0.00 0.00 0.00 99 1021.8
20240619044609 74 262 0.0 0.0 0.00 0.00 0.00 99 1021.8
20240619044108 74 262 0.0 0.0 0.00 0.00 0.00 99 1021.8
20240619043607 74 262 0.0 1.0 0.00 0.00 0.00 99 1021.5
20240619043106 75 90 0.0 1.0 0.00 0.00 0.00 99 1021.7
20240619042604 75 172 0.0 0.0 0.00 0.00 0.00 99 1021.7
20240619042103 75 172 0.0 0.0 0.00 0.00 0.00 99 1021.9
20240619041602 75 0 0.0 0.0 0.00 0.00 0.00 99 1021.4
20240619041101 75 0 1.0 1.0 0.00 0.00 0.00 99 1021.6
20240619040559 75 270 0.0 1.0 0.00 0.00 0.00 99 1021.8
20240619040057 75 261 0.0 0.0 0.00 0.00 0.00 99 1021.5
20240619035557 75 15 0.0 0.0 0.00 0.00 0.00 99 1021.5
20240619035055 75 15 0.0 0.0 0.00 0.00 0.00 99 1021.8
20240619034558 75 15 0.0 1.0 0.00 0.00 0.00 99 1021.4
20240619034052 75 6 0.0 0.0 0.00 0.00 0.00 99 1021.3
20240619033552 76 6 0.0 0.0 0.00 0.00 0.00 99 1021.4
20240619033051 76 0 2.0 2.0 0.00 0.00 0.00 99 1021.5
20240619032550 76 270 0.0 2.0 0.00 0.00 0.00 99 1021.4
20240619032049 76 195 0.0 0.0 0.00 0.00 0.00 99 1021.5
20240619031548 76 195 0.0 0.0 0.00 0.00 0.00 99 1021.4
20240619031047 76 126 1.0 2.0 0.00 0.00 0.00 99 1021.0
20240619030547 76 60 0.0 2.0 0.00 0.00 0.00 99 1021.0
20240619030045 76 165 0.0 1.0 0.00 0.00 0.00 99 1021.5
20240619025543 76 234 0.0 2.0 0.00 0.00 0.00 99 1021.3
20240619025041 76 352 0.0 0.0 0.00 0.00 0.00 99 1021.3
20240619024541 76 105 0.0 0.0 0.00 0.00 0.00 99 1021.3
20240619024039 76 105 0.0 0.0 0.00 0.00 0.00 99 1021.6
20240619023538 76 180 0.0 1.0 0.00 0.00 0.00 99 1021.4
20240619023037 76 100 0.0 2.0 0.00 0.00 0.00 98 1021.2
20240619022537 77 270 0.0 0.0 0.00 0.00 0.00 98 1021.2
20240619022036 77 270 0.0 0.0 0.00 0.00 0.00 98 1021.1
20240619021535 77 270 1.0 1.0 0.00 0.00 0.00 98 1021.3
20240619021033 77 263 0.0 1.0 0.00 0.00 0.00 98 1021.2
20240619020533 77 254 1.0 1.0 0.00 0.00 0.00 98 1021.3
20240619020033 77 35 0.0 1.0 0.00 0.00 0.00 97 1020.9
20240619015530 77 20 0.0 1.0 0.00 0.00 0.00 97 1021.0
20240619015029 77 270 0.0 0.0 0.00 0.00 0.00 97 1020.9
20240619014528 77 270 0.0 0.0 0.00 0.00 0.00 96 1021.1
20240619014028 78 270 0.0 0.0 0.00 0.00 0.00 96 1020.9
20240619013526 78 29 0.0 1.0 0.00 0.00 0.00 95 1020.8
20240619013024 78 165 0.0 0.0 0.00 0.00 0.00 94 1020.9
20240619012524 78 172 0.0 0.0 0.00 0.00 0.00 94 1020.7
20240619012023 78 15 0.0 0.0 0.00 0.00 0.00 94 1020.7
20240619011522 78 15 0.0 0.0 0.00 0.00 0.00 94 1020.7
20240619011020 78 15 0.0 1.0 0.00 0.00 0.00 93 1020.6
20240619010518 78 12 0.0 0.0 0.00 0.00 0.00 93 1020.9
20240619010017 79 8 2.0 2.0 0.00 0.00 0.00 93 1020.8
20240619005518 79 180 0.0 1.0 0.00 0.00 0.00 93 1020.9
20240619005017 79 74 0.0 0.0 0.00 0.00 0.00 91 1020.8
20240619004515 79 74 0.0 0.0 0.00 0.00 0.00 91 1020.8
20240619004013 80 74 0.0 1.0 0.00 0.00 0.00 92 1020.5
20240619003513 80 23 1.0 2.0 0.00 0.00 0.00 91 1020.4
20240619003011 80 74 0.0 1.0 0.00 0.00 0.00 91 1020.4
20240619002450 80 120 0.0 1.0 0.00 0.00 0.00 91 1020.7
20240619001951 81 0 0.0 0.0 0.00 0.00 0.00 90 1020.6
20240619001450 81 209 0.0 0.0 0.00 0.00 0.00 89 1020.8
20240619000948 81 209 0.0 0.0 0.00 0.00 0.00 88 1020.8
20240619000447 81 209 0.0 0.0 0.00 0.00 0.00 87 1020.6
20240618235944 81 209 0.0 0.0 0.00 0.00 0.00 87 1020.8
20240618235443 81 209 0.0 0.0 0.00 0.00 0.00 86 1020.6
20240618234941 81 209 0.0 0.0 0.00 0.00 0.00 85 1020.8
20240618234441 81 209 0.0 0.0 0.00 0.00 0.00 85 1020.7
20240618233938 82 209 0.0 0.0 0.00 0.00 0.00 85 1020.8
20240618233436 82 180 0.0 1.0 0.00 0.00 0.00 82 1020.6
20240618232933 83 99 0.0 0.0 0.00 0.00 0.00 79 1020.4
20240618232433 84 99 0.0 0.0 0.00 0.00 0.00 76 1020.5
20240618231931 84 99 0.0 0.0 0.00 0.00 0.00 79 1020.4
20240618231430 84 99 0.0 0.0 0.00 0.00 0.00 78 1020.5
20240618230929 84 99 0.0 0.0 0.00 0.00 0.00 79 1020.6
20240618230428 84 184 0.0 2.0 0.00 0.00 0.00 76 1020.7
20240618225926 86 234 0.0 2.0 0.00 0.00 0.00 73 1020.7
20240618225425 87 151 0.0 1.0 0.00 0.00 0.00 71 1020.8
20240618224923 87 83 1.0 2.0 0.00 0.00 0.00 74 1020.7
20240618224420 87 106 0.0 2.0 0.00 0.00 0.00 73 1020.9
20240618223919 87 132 2.0 2.0 0.00 0.00 0.00 74 1021.0
20240618223418 86 99 1.0 1.0 0.00 0.00 0.00 72 1020.7
20240618222913 87 180 2.0 2.0 0.00 0.00 0.00 71 1020.9
20240618222341 87 188 0.0 2.0 0.00 0.00 0.00 73 1021.1
20240618221840 87 157 0.0 3.0 0.00 0.00 0.00 72 1021.1
20240618221339 88 174 1.0 3.0 0.00 0.00 0.00 69 1020.9
20240618220838 89 143 2.0 2.0 0.00 0.00 0.00 72 1021.0
20240618220336 89 188 0.0 2.0 0.00 0.00 0.00 66 1021.1
20240618215835 89 264 2.0 2.0 0.00 0.00 0.00 68 1021.2
20240618215333 88 99 1.0 1.0 0.00 0.00 0.00 69 1021.2
20240618214831 88 157 0.0 2.0 0.00 0.00 0.00 70 1021.1
20240618214330 89 99 0.0 1.0 0.00 0.00 0.00 66 1021.2
20240618213829 89 270 0.0 3.0 0.00 0.00 0.00 66 1021.2
20240618213329 87 180 1.0 1.0 0.00 0.00 0.00 73 1021.3
20240618212827 86 255 2.0 3.0 0.00 0.00 0.00 69 1021.4
20240618212325 87 106 1.0 4.0 0.00 0.00 0.00 68 1021.4
20240618211742 89 212 2.0 3.0 0.00 0.00 0.00 70 1021.3
20240618211242 89 157 2.0 4.0 0.00 0.00 0.00 65 1021.4
20240618210741 89 180 0.0 3.0 0.00 0.00 0.00 62 1021.3
20240618210240 91 75 0.0 3.0 0.00 0.00 0.00 64 1021.5
20240618205738 90 6 1.0 3.0 0.00 0.00 0.00 62 1021.5
20240618205237 90 354 1.0 3.0 0.00 0.00 0.00 63 1021.3
20240618204735 89 237 2.0 4.0 0.00 0.00 0.00 73 1021.5
20240618204235 88 117 0.0 6.0 0.00 0.00 0.00 69 1021.6
20240618203734 89 133 3.0 4.0 0.00 0.00 0.00 70 1021.7
20240618203233 88 203 0.0 3.0 0.00 0.00 0.00 69 1021.5
20240618202733 89 128 3.0 4.0 0.00 0.00 0.00 64 1021.6
20240618202232 89 57 2.0 3.0 0.00 0.00 0.00 70 1021.7
20240618201732 89 135 0.0 4.0 0.00 0.00 0.00 68 1021.4